Regional Weather Roundup
Issued by NWS

Home | Current Version | Previous Version | Text Only | Print | Product List | Glossary On
Versions: 1 2 3 4 5 6 7 8 9 10 11 12 13 14 15 16 17 18 19 20 21 22 23 24 25 26 27 28 29 30 31 32 33 34 35 36 37 38 39 40 41 42 43 44 45 46 47 48 49 50
000
ASUS43 KMKX 241421
RWRWI

WISCONSIN REGIONAL WEATHER ROUNDUP
NATIONAL WEATHER SERVICE MILWAUKEE/SULLIVAN WI
900 AM CDT WED MAY 24 2017

NOTE: "FAIR" INDICATES FEW OR NO CLOUDS BELOW 12,000 FEET WITH NO
SIGNIFICANT WEATHER AND/OR OBSTRUCTIONS TO VISIBILITY.

WIZ001-002-006>008-014>016-023>028-241500-
NORTHWEST WISCONSIN

CITY           SKY/WX    TMP DP  RH WIND       PRES   REMARKS
SUPERIOR ARPT  NOT AVBL
ASHLAND        CLOUDY    47  42  83 N8        29.83S
HAYWARD        CLOUDY    50  43  77 N10       29.80S
SIREN          CLOUDY    50  44  80 NE9       29.80F
CUMBERLAND     CLOUDY    48  43  81 N9        29.78S
RICE LAKE      CLOUDY    50  45  81 N8        29.79S
CHETEK         CLOUDY    51  44  78 CALM      29.77S
LADYSMITH      MOSUNNY   52  45  76 N7        29.78S
EAU CLAIRE     SUNNY     53  44  71 NE10      29.74S
MENOMONIE      SUNNY     52  45  76 N8        29.77R
NEW RICHMOND   CLOUDY    50  43  76 NE3       29.78S
OSCEOLA        CLOUDY    51  45  78 N7        29.81S
$$

WIZ003>005-009-010-017-018-241500-
NORTH CENTRAL WISCONSIN

CITY           SKY/WX    TMP DP  RH WIND       PRES   REMARKS
MANITOWISH WTR CLOUDY    48  45  90 NE12      29.77S
ARBOR VITAE    CLOUDY    52  45  77 NE10G17   29.76S
WOODRUFF       CLOUDY    52  45  77 NE10G17   29.76S
RHINELANDER    CLOUDY    48  45  89 NE8       29.76R
EAGLE RIVER    CLOUDY    47  45  92 NE12      29.76R
LAND O LAKES   CLOUDY    47  43  84 NE8       29.79R
PHILLIPS       PTSUNNY   51  45  79 NE12      29.76S
TOMAHAWK       CLOUDY    48  44  87 NE5       29.76R
MEDFORD        CLOUDY    48  45  87 NE9       29.74S
MERRILL        CLOUDY    48  47  97 NE6       29.75R
$$

WIZ029-030-035-036-043>047-241500-
CENTRAL WISCONSIN

CITY           SKY/WX    TMP DP  RH WIND       PRES   REMARKS
WAUSAU         LGT RAIN  48  47  96 N7        29.71S
MOSINEE        CLOUDY    48  48 100 N9        29.73S FOG
MARSHFIELD     CLOUDY    50  46  86 NE9       29.71S
STEVENS POINT  CLOUDY    47  47 100 N8        29.71F FOG
WAUPACA        CLOUDY    51  49  95 NE8       29.71S
WAUTOMA        CLOUDY    49  48  97 NE8       29.70S
WISC RAPIDS    CLOUDY    51  48  89 NE12      29.71F
CAMP DOUGLAS   DRIZZLE   50  48  93 N7        29.70S
$$

WIZ011>013-019>022-031-037>040-048>050-241500-
NORTHEAST WISCONSIN

CITY           SKY/WX    TMP DP  RH WIND       PRES   REMARKS
ANTIGO         CLOUDY    47  47  98 NE10      29.73S
SHAWANO        CLOUDY    50  48  93 NE9       29.73R FOG
OCONTO         CLOUDY    47  46  97 NE8       29.72R
STURGEON BAY   CLOUDY    49  47  93 NE9       29.72R
GREEN BAY      LGT RAIN  50  50 100 N13       29.70S FOG
MANITOWOC      LGT RAIN  48  47  96 N9        29.69S FOG
APPLETON       CLOUDY    48  48 100 NE12G17   29.68R FOG
CLINTONVILLE   CLOUDY    46  46 100 NE6       29.71S
OSHKOSH        CLOUDY    51  48  89 NE12      29.68S
$$

WIZ032>034-041-042-053>061-241500-
SOUTHWEST WISCONSIN

CITY           SKY/WX    TMP DP  RH WIND       PRES   REMARKS
LA CROSSE      CLOUDY    54  49  83 N8        29.71S
SPARTA         CLOUDY    49  48  97 NE8       29.72R
VIROQUA        CLOUDY    49  48  97 MISG      29.69S
BOSCOBEL       CLOUDY    54  49  83 N8        29.68S
PRAIRIE DU CHI CLOUDY    53  47  80 N3        29.68S
PLATTEVILLE    CLOUDY    51  51 100 N10       29.66S
$$

WIZ056-057-062-063-064-067-068-241500-
SOUTH CENTRAL WISCONSIN

CITY           SKY/WX    TMP DP  RH WIND       PRES   REMARKS
REEDSBURG      CLOUDY    49  49 100 NE7       29.68S
BARABOO/DELLS  CLOUDY    49  47  95 N7        29.68S FOG
LONE ROCK      CLOUDY    53  49  86 NE8       29.67S
MINERAL POINT  CLOUDY    52  52 100 N9        29.66S
MADISON        CLOUDY    51  50  96 N9        29.65S FOG
MIDDLETON      CLOUDY    52  52 100 N9        29.67S
WATERTOWN      CLOUDY    51  51 100 N6        29.65S
MONROE         CLOUDY    50  50 100 N8        29.64S FOG
JANESVILLE     CLOUDY    52  52 100 N7        29.63S FOG
$$

WIZ051-052-058>065-066-070>072-241500-
SOUTHEAST WISCONSIN

CITY           SKY/WX    TMP DP  RH WIND       PRES   REMARKS
MILWAUKEE      LGT RAIN  49  48  97 N16       29.64F VSB 3/4
WAUKESHA       LGT RAIN  48  48 100 NE7       29.66R FOG
MILWAUKEE/TIMM RAIN      50  48  93 NE6       29.66S FOG
RACINE         LGT RAIN  49  47  93 N14G23    29.63F
KENOSHA        CLOUDY    52  50  93 NE7       29.62S
FOND DU LAC    CLOUDY    51  47  86 N9        29.68S
SHEBOYGAN      LGT RAIN  49  49 100 NE9       29.67S
WEST BEND      RAIN      50  50 100 NE3       29.66S
JUNEAU         CLOUDY    50  49  96 N7        29.67S
$$

LSZ147-162-241500-
LAKE SUPERIOR

STATION/POSITION TIME  TEMP    WIND        PRES    WAVE
                       AIR SEA DIR/SP/G            HT/PER
                 (UTC) (F)     (DEG/KT/KT) (MB)    (FT/S)
W MID LAKE BUOY  1350   40 37   10/  8/ 10 1010.8R   1
DEVILS ISLAND    1400   42      30/  7/  8 1011.0S
SAXON HARBOR     1340   43     360/  1/  2 1009.8S
$$

LMZ867-665-643>646-241500-
LAKE MICHIGAN

STATION/POSITION TIME  TEMP    WIND        PRES    WAVE
                       AIR SEA DIR/SP/G            HT/PER
                 (UTC) (F)     (DEG/KT/KT) (MB)    (FT/S)
CHAMBERS ISLAND  1340   47     360/ 15/ 18 1006.4S
N MID LAKE BUOY  1350   42 39   50/  8/  8 1007.7R   1
NORTHPORT PIER   1340   46     340/  6/  7 1007.1R
KEWAUNEE LAKESHO 1354   46      20/ 10/ 17 1005.4R
SHEBOYGAN LAKESH 1400   45      10/ 13/ 14 1005.1R
PORT WASHINGTON  1340   48      40/  6/  8 1005.8R
ATWATER BUOY     1209   45      10/ 12/ 16 1004.2F
MILWAUKEE LAKESH 1400   48      10/ 13/ 15   N/A
S MID LAKE BUOY  1350   48 45   10/ 12/ 14 1002.8R   2/ 3
KENOSHA   LAKESH 1400   49      10/ 17/ 21 1003.0
$$

TC  - TEMPERATURE IN CELSIUS
VSB - VISIBILITY IN STATUTE MILES
WCI - WIND CHILL INDEX
HX  - HEAT INDEX




USA.gov is the U.S. government's official web portal to all federal, state and local government web resources and services.